MDT,Max TemperatureF,Mean TemperatureF,Min TemperatureF,Max Dew PointF,MeanDew PointF,Min DewpointF,Max Humidity, Mean Humidity, Min Humidity, Max Sea Level PressureIn, Mean Sea Level PressureIn, Min Sea Level PressureIn, Max VisibilityMiles, Mean VisibilityMiles, Min VisibilityMiles, Max Wind SpeedMPH, Mean Wind SpeedMPH, Max Gust SpeedMPH,PrecipitationIn, CloudCover, Events, WindDirDegrees
2011-10-1,89,66,44,46,41,36,76,47,20,29.96,29.91,29.87,10,10,8,9,5,,0.00,0,,153
2011-10-2,80,62,44,48,44,37,76,53,28,29.97,29.88,29.84,10,10,10,12,5,,0.00,0,,319
2011-10-3,80,66,51,55,50,46,82,58,37,30.07,30.01,29.96,10,10,9,12,6,,0.00,1,,5
2011-10-4,89,68,46,54,47,43,93,57,22,29.97,29.78,29.60,10,10,10,20,8,29,0.00,0,,76
2011-10-5,87,68,50,48,45,43,76,45,24,29.57,29.51,29.44,10,10,10,21,5,31,0.00,0,,167
2011-10-6,69,64,59,57,50,43,82,60,38,29.49,29.47,29.45,10,10,9,16,8,21,0.05,3,,142
2011-10-7,60,54,48,55,48,43,94,81,67,29.52,29.33,29.25,10,10,6,29,8,36,0.21,7,Thunderstorm,192
2011-10-8,59,52,42,46,40,34,87,67,41,30.26,30.07,29.81,10,10,7,16,12,28,0.00,3,,308
2011-10-9,57,42,28,39,34,25,93,74,44,30.28,30.19,30.01,10,10,6,13,2,20,0.00,3,,119
2011-10-10,62,50,37,45,39,32,93,73,39,29.93,29.76,29.66,10,10,9,10,3,,0.00,1,,237
2011-10-11,69,52,35,45,38,32,93,68,35,29.67,29.63,29.59,10,10,10,14,6,20,0.00,2,,212
2011-10-12,64,54,44,41,37,34,81,55,34,29.88,29.82,29.71,10,10,10,24,13,30,0.00,1,,281
2011-10-13,57,50,42,37,32,28,76,53,41,29.96,29.89,29.85,10,10,10,22,14,30,0.00,2,,291
2011-10-14,55,44,33,34,28,23,75,53,31,30.08,30.02,29.96,10,10,10,20,12,25,0.00,0,,296
2011-10-15,48,40,33,41,35,28,93,75,61,30.03,29.95,29.90,10,10,10,12,4,,0.00,5,,246
2011-10-16,53,42,30,30,25,19,87,57,28,30.13,30.08,30.02,10,10,10,14,10,21,0.00,0,,292
2011-10-17,57,45,33,28,23,21,75,46,26,30.22,30.13,30.05,10,10,10,26,9,31,0.00,0,,304
2011-10-18,59,42,26,28,25,19,80,54,29,30.31,30.25,30.21,10,10,9,17,5,20,0.00,2,,308
2011-10-19,60,42,24,34,27,19,100,60,31,30.22,30.09,29.97,10,10,10,16,4,18,0.00,0,,146
2011-10-20,69,48,28,39,30,25,93,58,30,29.96,29.89,29.83,10,10,7,16,9,23,0.00,0,,211
2011-10-21,60,48,35,37,34,28,81,64,39,30.11,30.06,29.94,10,10,10,12,3,,0.00,0,,320
2011-10-22,66,47,28,43,31,23,93,60,24,30.05,29.93,29.87,10,10,7,24,8,30,0.00,2,,233
2011-10-23,62,50,35,45,36,27,100,64,29,30.01,29.90,29.86,10,10,10,24,6,31,0.00,2,,267
2011-10-24,48,39,30,39,31,25,81,72,61,30.05,30.00,29.93,10,10,10,14,6,,0.01,6,,60
2011-10-25,44,37,30,39,35,27,93,87,71,30.24,30.10,30.00,10,9,6,16,6,24,0.04,5,,278
2011-10-26,48,38,26,30,25,18,86,66,34,30.25,30.19,30.07,10,10,10,15,11,16,0.00,2,,284
2011-10-27,51,36,21,30,24,16,93,65,33,30.08,29.98,29.93,10,10,10,20,7,25,0.00,2,,262
2011-10-28,53,36,19,28,20,12,93,58,19,30.19,30.09,29.87,10,10,7,14,5,18,0.00,0,,216
2011-10-29,55,42,30,37,27,18,71,53,36,29.94,29.78,29.68,10,10,10,26,10,36,0.00,5,,247
2011-10-30,53,40,26,25,22,18,80,51,26,30.07,30.01,29.93,10,10,10,15,8,18,0.00,0,,278
2011-10-31,64,47,30,41,31,23,81,61,40,29.99,29.79,29.70,10,10,10,23,10,34,0.00,3,,243